Precipitable_Water
0.44 0.45 0.47 0.46 0.46 0.45 0.45 0.45 0.45 0.45 0.45 0.45 0.44 0.43 0.43 0.43 0.44 0.44 0.45 0.45 0.45 0.44 0.43 0.42 0.41 0.40 0.39 0.38 0.37 0.37 0.37 0.37 0.38 0.38 0.37 0.37 0.37 0.37 0.36 0.36 0.36 0.36 0.36 0.35 0.35 0.33 0.32 0.31 0.30 0.30 0.30 0.29 0.29 0.30 0.31 0.32 0.33 0.33 0.33 0.32 0.31 0.31 0.29 0.27 0.25 0.24 0.26 0.26 0.25 0.25 0.25 0.25 0.23 0.23 0.22 0.22 0.22 0.22 0.22 0.22 0.21 0.20 0.20 0.19 0.19
0.45 0.46 0.47 0.47 0.47 0.46 0.47 0.47 0.46 0.46 0.46 0.46 0.45 0.44 0.44 0.45 0.45 0.46 0.45 0.45 0.45 0.45 0.44 0.43 0.42 0.41 0.40 0.39 0.38 0.37 0.36 0.36 0.37 0.37 0.37 0.37 0.37 0.38 0.37 0.37 0.37 0.37 0.36 0.34 0.33 0.33 0.32 0.30 0.30 0.30 0.29 0.29 0.29 0.30 0.31 0.31 0.31 0.30 0.30 0.30 0.30 0.29 0.29 0.27 0.25 0.24 0.23 0.24 0.24 0.24 0.23 0.23 0.22 0.22 0.21 0.20 0.20 0.21 0.21 0.20 0.20 0.19 0.18 0.18 0.18
0.45 0.46 0.47 0.47 0.47 0.48 0.48 0.47 0.47 0.47 0.46 0.47 0.46 0.46 0.46 0.46 0.46 0.45 0.45 0.45 0.46 0.46 0.45 0.43 0.43 0.42 0.40 0.39 0.38 0.37 0.36 0.36 0.37 0.37 0.38 0.37 0.37 0.37 0.37 0.37 0.36 0.36 0.35 0.34 0.32 0.32 0.30 0.29 0.29 0.29 0.29 0.28 0.29 0.30 0.30 0.29 0.29 0.29 0.28 0.28 0.28 0.27 0.26 0.26 0.24 0.22 0.22 0.22 0.23 0.22 0.21 0.21 0.20 0.20 0.21 0.20 0.20 0.20 0.19 0.18 0.18 0.18 0.17 0.17 0.17
0.46 0.46 0.47 0.47 0.48 0.48 0.48 0.48 0.48 0.47 0.47 0.47 0.48 0.47 0.47 0.46 0.46 0.45 0.45 0.46 0.45 0.45 0.45 0.44 0.43 0.42 0.41 0.39 0.38 0.37 0.36 0.36 0.37 0.37 0.37 0.37 0.37 0.36 0.36 0.36 0.36 0.36 0.35 0.33 0.31 0.30 0.29 0.28 0.28 0.28 0.29 0.29 0.29 0.29 0.29 0.29 0.28 0.27 0.27 0.27 0.26 0.25 0.25 0.25 0.24 0.23 0.22 0.21 0.21 0.20 0.20 0.20 0.19 0.20 0.20 0.19 0.19 0.18 0.17 0.17 0.17 0.16 0.16 0.16 0.16
0.47 0.48 0.47 0.47 0.48 0.48 0.48 0.48 0.48 0.48 0.48 0.48 0.48 0.49 0.47 0.46 0.46 0.46 0.46 0.45 0.45 0.45 0.45 0.45 0.44 0.43 0.42 0.40 0.38 0.37 0.36 0.36 0.36 0.36 0.36 0.37 0.36 0.36 0.36 0.35 0.34 0.34 0.34 0.32 0.31 0.30 0.29 0.29 0.30 0.30 0.31 0.29 0.29 0.28 0.28 0.27 0.27 0.26 0.25 0.25 0.25 0.25 0.24 0.24 0.23 0.22 0.21 0.20 0.20 0.20 0.20 0.19 0.19 0.19 0.18 0.17 0.16 0.16 0.16 0.16 0.16 0.16 0.16 0.16 0.16
0.47 0.47 0.47 0.46 0.47 0.47 0.47 0.48 0.48 0.48 0.48 0.48 0.49 0.49 0.48 0.46 0.46 0.46 0.45 0.44 0.44 0.44 0.45 0.45 0.44 0.43 0.42 0.40 0.39 0.37 0.36 0.35 0.35 0.35 0.35 0.35 0.36 0.35 0.35 0.34 0.34 0.34 0.34 0.33 0.32 0.31 0.30 0.30 0.31 0.30 0.29 0.28 0.27 0.27 0.26 0.25 0.25 0.24 0.24 0.24 0.24 0.23 0.23 0.22 0.22 0.21 0.20 0.20 0.19 0.19 0.18 0.18 0.17 0.17 0.17 0.17 0.16 0.15 0.14 0.15 0.16 0.16 0.15 0.15 0.15
0.48 0.47 0.46 0.46 0.46 0.46 0.46 0.47 0.48 0.48 0.47 0.48 0.48 0.49 0.47 0.46 0.46 0.45 0.45 0.44 0.44 0.44 0.45 0.45 0.44 0.42 0.41 0.40 0.38 0.36 0.35 0.35 0.35 0.34 0.34 0.34 0.34 0.34 0.34 0.34 0.34 0.34 0.33 0.32 0.30 0.30 0.30 0.30 0.30 0.29 0.28 0.27 0.26 0.25 0.25 0.25 0.24 0.24 0.23 0.23 0.23 0.22 0.22 0.22 0.21 0.20 0.19 0.19 0.19 0.19 0.18 0.18 0.18 0.16 0.16 0.17 0.16 0.16 0.16 0.14 0.14 0.15 0.16 0.15 0.14
0.47 0.45 0.44 0.43 0.43 0.43 0.45 0.47 0.47 0.47 0.47 0.47 0.47 0.47 0.47 0.46 0.46 0.46 0.46 0.44 0.44 0.45 0.45 0.45 0.44 0.42 0.41 0.40 0.38 0.37 0.37 0.36 0.36 0.34 0.34 0.34 0.34 0.34 0.34 0.34 0.33 0.34 0.33 0.31 0.29 0.29 0.29 0.29 0.28 0.27 0.26 0.26 0.26 0.26 0.25 0.24 0.24 0.23 0.23 0.22 0.22 0.22 0.22 0.21 0.20 0.19 0.19 0.18 0.18 0.18 0.18 0.17 0.17 0.17 0.17 0.17 0.16 0.16 0.17 0.16 0.14 0.14 0.15 0.16 0.16
0.46 0.44 0.42 0.42 0.43 0.44 0.45 0.47 0.48 0.48 0.47 0.46 0.46 0.46 0.46 0.46 0.47 0.46 0.46 0.45 0.45 0.45 0.45 0.44 0.43 0.42 0.41 0.40 0.39 0.39 0.38 0.36 0.35 0.34 0.34 0.35 0.35 0.34 0.34 0.33 0.32 0.31 0.30 0.28 0.27 0.27 0.27 0.26 0.26 0.26 0.26 0.27 0.27 0.27 0.26 0.24 0.23 0.22 0.22 0.22 0.22 0.22 0.21 0.20 0.19 0.18 0.18 0.19 0.18 0.19 0.18 0.18 0.17 0.17 0.16 0.16 0.16 0.15 0.17 0.17 0.16 0.16 0.16 0.15 0.15
0.45 0.43 0.43 0.44 0.46 0.46 0.46 0.47 0.48 0.49 0.48 0.47 0.46 0.46 0.46 0.46 0.46 0.46 0.46 0.46 0.46 0.45 0.45 0.44 0.43 0.41 0.40 0.41 0.41 0.40 0.38 0.36 0.36 0.35 0.35 0.33 0.32 0.32 0.32 0.31 0.30 0.30 0.29 0.27 0.25 0.25 0.24 0.24 0.25 0.26 0.27 0.27 0.27 0.27 0.26 0.25 0.25 0.24 0.23 0.23 0.23 0.21 0.19 0.18 0.18 0.18 0.18 0.18 0.18 0.18 0.17 0.16 0.17 0.17 0.16 0.16 0.17 0.18 0.17 0.17 0.16 0.16 0.16 0.15 0.15
0.45 0.45 0.45 0.47 0.48 0.48 0.48 0.48 0.49 0.49 0.49 0.49 0.48 0.47 0.47 0.46 0.46 0.46 0.46 0.47 0.46 0.46 0.46 0.45 0.43 0.43 0.42 0.42 0.40 0.39 0.38 0.36 0.35 0.34 0.33 0.32 0.31 0.31 0.30 0.30 0.29 0.29 0.27 0.26 0.24 0.24 0.24 0.24 0.24 0.25 0.26 0.26 0.26 0.25 0.25 0.25 0.25 0.24 0.24 0.24 0.23 0.21 0.19 0.18 0.18 0.18 0.18 0.17 0.18 0.18 0.17 0.16 0.16 0.17 0.17 0.17 0.17 0.18 0.17 0.17 0.16 0.15 0.15 0.14 0.12
0.47 0.47 0.48 0.49 0.49 0.49 0.49 0.49 0.49 0.50 0.50 0.49 0.48 0.47 0.47 0.47 0.47 0.47 0.47 0.47 0.47 0.47 0.46 0.45 0.44 0.43 0.43 0.42 0.41 0.39 0.36 0.35 0.34 0.33 0.33 0.32 0.31 0.30 0.29 0.28 0.27 0.26 0.26 0.25 0.24 0.24 0.24 0.24 0.24 0.25 0.26 0.25 0.24 0.24 0.24 0.23 0.23 0.23 0.22 0.22 0.22 0.22 0.22 0.21 0.19 0.19 0.19 0.18 0.18 0.18 0.18 0.16 0.16 0.17 0.17 0.17 0.17 0.17 0.16 0.16 0.15 0.15 0.14 0.14 0.13
0.46 0.46 0.48 0.50 0.50 0.50 0.50 0.49 0.48 0.48 0.49 0.49 0.48 0.48 0.48 0.48 0.48 0.48 0.48 0.48 0.48 0.47 0.46 0.45 0.44 0.44 0.44 0.42 0.40 0.39 0.37 0.35 0.34 0.33 0.32 0.30 0.29 0.27 0.26 0.25 0.24 0.24 0.24 0.24 0.24 0.24 0.25 0.25 0.26 0.26 0.26 0.25 0.24 0.23 0.22 0.22 0.22 0.22 0.22 0.21 0.21 0.20 0.20 0.21 0.21 0.20 0.20 0.19 0.18 0.17 0.17 0.18 0.17 0.16 0.17 0.17 0.18 0.16 0.16 0.15 0.15 0.16 0.16 0.15 0.14
0.47 0.47 0.49 0.50 0.51 0.51 0.51 0.50 0.49 0.48 0.48 0.48 0.48 0.48 0.49 0.48 0.49 0.50 0.50 0.50 0.49 0.48 0.47 0.46 0.45 0.45 0.44 0.43 0.41 0.38 0.35 0.33 0.33 0.32 0.31 0.29 0.27 0.25 0.24 0.23 0.23 0.23 0.24 0.24 0.25 0.25 0.26 0.26 0.26 0.26 0.26 0.25 0.24 0.23 0.22 0.22 0.21 0.21 0.20 0.20 0.19 0.19 0.19 0.19 0.20 0.20 0.20 0.19 0.18 0.16 0.17 0.18 0.17 0.17 0.18 0.19 0.18 0.16 0.16 0.16 0.16 0.16 0.16 0.16 0.17
0.48 0.48 0.49 0.51 0.51 0.52 0.52 0.52 0.51 0.49 0.49 0.49 0.49 0.49 0.49 0.50 0.51 0.51 0.51 0.50 0.49 0.48 0.48 0.47 0.46 0.45 0.44 0.42 0.39 0.36 0.33 0.32 0.32 0.31 0.30 0.29 0.27 0.24 0.24 0.24 0.24 0.24 0.25 0.26 0.26 0.26 0.26 0.26 0.26 0.25 0.24 0.23 0.22 0.22 0.21 0.21 0.21 0.20 0.20 0.19 0.19 0.19 0.19 0.19 0.19 0.19 0.18 0.18 0.18 0.18 0.18 0.19 0.20 0.20 0.20 0.20 0.19 0.19 0.19 0.18 0.18 0.18 0.18 0.19 0.18
0.48 0.48 0.48 0.50 0.51 0.52 0.52 0.51 0.51 0.50 0.49 0.50 0.50 0.50 0.50 0.50 0.50 0.51 0.50 0.50 0.49 0.48 0.47 0.46 0.46 0.45 0.43 0.41 0.37 0.33 0.32 0.32 0.32 0.31 0.29 0.29 0.29 0.26 0.25 0.25 0.25 0.26 0.27 0.28 0.29 0.28 0.28 0.27 0.26 0.24 0.23 0.22 0.21 0.22 0.21 0.21 0.20 0.20 0.19 0.19 0.20 0.20 0.19 0.19 0.20 0.21 0.21 0.21 0.21 0.21 0.21 0.21 0.21 0.21 0.21 0.21 0.20 0.20 0.21 0.20 0.20 0.19 0.18 0.16 0.15
0.50 0.50 0.50 0.51 0.51 0.51 0.51 0.51 0.50 0.49 0.49 0.50 0.49 0.49 0.49 0.49 0.49 0.49 0.48 0.48 0.48 0.47 0.47 0.47 0.46 0.44 0.41 0.38 0.35 0.32 0.30 0.31 0.31 0.30 0.29 0.29 0.29 0.28 0.26 0.26 0.27 0.28 0.29 0.29 0.30 0.29 0.28 0.26 0.25 0.23 0.22 0.21 0.21 0.21 0.21 0.21 0.20 0.19 0.18 0.17 0.17 0.17 0.17 0.19 0.21 0.20 0.20 0.19 0.20 0.19 0.19 0.19 0.19 0.20 0.20 0.20 0.20 0.21 0.19 0.17 0.15 0.17 0.16 0.15 0.15
0.49 0.50 0.50 0.50 0.49 0.49 0.50 0.50 0.49 0.49 0.49 0.49 0.49 0.49 0.49 0.49 0.49 0.49 0.47 0.47 0.47 0.47 0.47 0.46 0.45 0.42 0.39 0.36 0.33 0.31 0.29 0.30 0.31 0.30 0.29 0.29 0.29 0.27 0.27 0.27 0.28 0.29 0.29 0.30 0.29 0.28 0.27 0.26 0.24 0.22 0.21 0.20 0.20 0.20 0.20 0.20 0.19 0.18 0.17 0.16 0.16 0.16 0.17 0.18 0.18 0.17 0.18 0.17 0.17 0.18 0.19 0.19 0.19 0.19 0.18 0.18 0.17 0.17 0.16 0.14 0.15 0.16 0.15 0.15 0.14
0.49 0.48 0.48 0.48 0.48 0.49 0.49 0.49 0.49 0.49 0.48 0.48 0.48 0.48 0.48 0.48 0.49 0.48 0.48 0.48 0.47 0.47 0.46 0.45 0.43 0.41 0.38 0.35 0.33 0.30 0.29 0.30 0.30 0.29 0.29 0.29 0.29 0.28 0.28 0.28 0.28 0.28 0.29 0.28 0.28 0.26 0.25 0.24 0.23 0.22 0.21 0.20 0.20 0.20 0.20 0.19 0.18 0.17 0.17 0.16 0.15 0.15 0.16 0.16 0.15 0.14 0.16 0.16 0.17 0.18 0.17 0.17 0.16 0.15 0.14 0.15 0.16 0.16 0.16 0.16 0.16 0.16 0.15 0.15 0.16
0.50 0.48 0.48 0.48 0.49 0.49 0.48 0.48 0.48 0.48 0.47 0.46 0.46 0.46 0.46 0.46 0.46 0.46 0.46 0.45 0.45 0.45 0.44 0.43 0.42 0.40 0.38 0.36 0.34 0.31 0.29 0.29 0.30 0.29 0.28 0.29 0.29 0.28 0.28 0.27 0.27 0.28 0.28 0.27 0.25 0.25 0.24 0.23 0.22 0.22 0.21 0.20 0.19 0.19 0.18 0.18 0.17 0.18 0.17 0.16 0.15 0.14 0.15 0.15 0.15 0.16 0.17 0.16 0.16 0.15 0.14 0.14 0.14 0.14 0.14 0.14 0.14 0.15 0.16 0.16 0.16 0.17 0.16 0.16 0.16
0.52 0.50 0.49 0.49 0.49 0.49 0.49 0.49 0.49 0.48 0.48 0.47 0.46 0.45 0.44 0.44 0.44 0.45 0.45 0.45 0.44 0.43 0.43 0.42 0.41 0.40 0.39 0.37 0.34 0.31 0.30 0.29 0.29 0.28 0.27 0.27 0.27 0.27 0.27 0.28 0.28 0.28 0.27 0.26 0.25 0.24 0.23 0.22 0.21 0.21 0.20 0.19 0.18 0.17 0.17 0.17 0.18 0.17 0.17 0.16 0.15 0.15 0.16 0.16 0.16 0.16 0.15 0.14 0.13 0.13 0.13 0.13 0.13 0.13 0.13 0.13 0.14 0.14 0.15 0.16 0.16 0.17 0.17 0.17 0.17
0.51 0.51 0.50 0.48 0.47 0.47 0.48 0.48 0.48 0.48 0.48 0.47 0.46 0.45 0.45 0.44 0.43 0.44 0.44 0.44 0.43 0.43 0.43 0.42 0.41 0.40 0.39 0.37 0.34 0.31 0.30 0.29 0.27 0.27 0.27 0.27 0.28 0.28 0.27 0.28 0.28 0.28 0.27 0.26 0.25 0.24 0.22 0.21 0.20 0.20 0.19 0.18 0.18 0.17 0.17 0.17 0.16 0.16 0.16 0.16 0.16 0.16 0.16 0.16 0.15 0.14 0.13 0.12 0.12 0.12 0.12 0.12 0.12 0.12 0.12 0.13 0.13 0.14 0.15 0.15 0.16 0.17 0.17 0.18 0.18
0.49 0.47 0.46 0.46 0.46 0.46 0.46 0.47 0.47 0.47 0.47 0.46 0.45 0.45 0.44 0.43 0.43 0.43 0.43 0.43 0.42 0.42 0.43 0.42 0.40 0.39 0.38 0.36 0.34 0.32 0.30 0.28 0.27 0.27 0.27 0.27 0.28 0.29 0.28 0.28 0.29 0.28 0.27 0.26 0.25 0.23 0.22 0.21 0.20 0.19 0.19 0.18 0.18 0.18 0.17 0.16 0.16 0.15 0.14 0.15 0.15 0.16 0.15 0.13 0.12 0.12 0.12 0.12 0.12 0.11 0.11 0.11 0.11 0.11 0.11 0.12 0.13 0.14 0.14 0.15 0.16 0.16 0.16 0.17 0.18
0.47 0.46 0.44 0.43 0.43 0.43 0.45 0.46 0.46 0.46 0.45 0.45 0.44 0.44 0.43 0.43 0.44 0.44 0.43 0.42 0.41 0.41 0.41 0.40 0.39 0.38 0.37 0.36 0.34 0.32 0.30 0.28 0.27 0.27 0.28 0.29 0.29 0.30 0.30 0.30 0.30 0.29 0.29 0.26 0.25 0.23 0.21 0.21 0.20 0.19 0.19 0.19 0.18 0.17 0.16 0.15 0.14 0.14 0.14 0.14 0.14 0.14 0.12 0.11 0.11 0.11 0.11 0.11 0.11 0.11 0.11 0.11 0.11 0.11 0.11 0.12 0.12 0.13 0.14 0.15 0.15 0.16 0.16 0.17 0.18
0.44 0.44 0.44 0.44 0.43 0.42 0.42 0.42 0.41 0.42 0.43 0.44 0.43 0.42 0.42 0.42 0.42 0.42 0.42 0.42 0.41 0.40 0.39 0.39 0.38 0.38 0.37 0.35 0.34 0.32 0.30 0.28 0.27 0.28 0.29 0.31 0.31 0.31 0.31 0.30 0.30 0.31 0.29 0.27 0.25 0.23 0.22 0.21 0.21 0.20 0.19 0.17 0.16 0.15 0.14 0.13 0.13 0.13 0.13 0.13 0.12 0.11 0.11 0.11 0.11 0.11 0.10 0.10 0.10 0.10 0.10 0.11 0.11 0.11 0.12 0.12 0.13 0.13 0.14 0.14 0.15 0.16 0.17 0.18 0.18
0.42 0.42 0.42 0.42 0.42 0.42 0.41 0.40 0.40 0.41 0.41 0.41 0.40 0.39 0.41 0.41 0.41 0.41 0.42 0.42 0.41 0.40 0.40 0.39 0.39 0.38 0.37 0.35 0.34 0.31 0.30 0.28 0.29 0.29 0.31 0.32 0.32 0.31 0.31 0.31 0.32 0.31 0.29 0.26 0.24 0.23 0.23 0.22 0.20 0.19 0.17 0.15 0.14 0.13 0.12 0.12 0.12 0.12 0.11 0.11 0.10 0.11 0.10 0.10 0.10 0.10 0.10 0.10 0.10 0.10 0.10 0.10 0.11 0.11 0.12 0.12 0.12 0.13 0.13 0.14 0.14 0.15 0.16 0.17 0.17
0.44 0.42 0.41 0.41 0.40 0.40 0.39 0.38 0.38 0.38 0.39 0.41 0.42 0.42 0.40 0.39 0.39 0.41 0.41 0.41 0.40 0.40 0.40 0.39 0.38 0.37 0.36 0.34 0.32 0.30 0.29 0.29 0.30 0.30 0.31 0.32 0.31 0.31 0.31 0.31 0.31 0.30 0.28 0.26 0.24 0.23 0.22 0.20 0.18 0.17 0.15 0.14 0.13 0.13 0.12 0.12 0.11 0.10 0.10 0.10 0.10 0.10 0.10 0.10 0.10 0.10 0.10 0.10 0.10 0.10 0.10 0.11 0.11 0.11 0.11 0.12 0.12 0.13 0.14 0.14 0.14 0.15 0.16 0.16 0.16
0.43 0.43 0.42 0.41 0.40 0.40 0.39 0.39 0.38 0.38 0.38 0.38 0.39 0.40 0.40 0.40 0.40 0.41 0.40 0.40 0.39 0.39 0.39 0.39 0.37 0.36 0.34 0.33 0.32 0.31 0.30 0.29 0.29 0.29 0.30 0.31 0.31 0.31 0.31 0.30 0.29 0.27 0.25 0.24 0.23 0.22 0.20 0.19 0.17 0.15 0.13 0.12 0.12 0.11 0.11 0.11 0.10 0.10 0.10 0.10 0.10 0.10 0.10 0.11 0.11 0.10 0.10 0.10 0.10 0.10 0.10 0.10 0.10 0.10 0.11 0.11 0.12 0.13 0.14 0.14 0.14 0.15 0.16 0.16 0.16
0.39 0.39 0.41 0.41 0.40 0.39 0.38 0.38 0.38 0.38 0.38 0.38 0.37 0.37 0.37 0.37 0.39 0.40 0.42 0.42 0.41 0.40 0.38 0.37 0.37 0.36 0.34 0.33 0.32 0.30 0.30 0.29 0.30 0.31 0.31 0.30 0.30 0.30 0.30 0.29 0.28 0.26 0.24 0.23 0.21 0.20 0.19 0.17 0.15 0.13 0.12 0.11 0.11 0.11 0.10 0.10 0.09 0.09 0.09 0.09 0.10 0.10 0.10 0.10 0.09 0.09 0.09 0.09 0.09 0.09 0.09 0.10 0.10 0.10 0.11 0.11 0.12 0.13 0.14 0.14 0.15 0.15 0.16 0.16 0.16
0.36 0.36 0.36 0.38 0.39 0.39 0.38 0.37 0.37 0.36 0.36 0.36 0.36 0.36 0.36 0.35 0.35 0.35 0.36 0.38 0.41 0.42 0.41 0.40 0.39 0.37 0.35 0.34 0.33 0.31 0.30 0.29 0.29 0.30 0.30 0.31 0.30 0.30 0.29 0.28 0.26 0.24 0.24 0.23 0.21 0.18 0.17 0.15 0.13 0.12 0.11 0.11 0.10 0.10 0.09 0.09 0.09 0.09 0.09 0.09 0.09 0.09 0.09 0.09 0.09 0.09 0.09 0.09 0.09 0.09 0.09 0.09 0.09 0.10 0.10 0.11 0.12 0.13 0.14 0.15 0.15 0.16 0.15 0.15 0.15
0.34 0.34 0.34 0.34 0.35 0.36 0.36 0.37 0.37 0.37 0.36 0.36 0.35 0.34 0.33 0.33 0.34 0.34 0.33 0.34 0.35 0.36 0.37 0.38 0.38 0.37 0.35 0.33 0.31 0.29 0.28 0.28 0.29 0.31 0.31 0.30 0.30 0.29 0.29 0.27 0.26 0.25 0.25 0.22 0.19 0.17 0.15 0.13 0.12 0.11 0.11 0.10 0.10 0.09 0.09 0.09 0.09 0.08 0.08 0.09 0.09 0.09 0.09 0.09 0.09 0.09 0.09 0.09 0.09 0.09 0.09 0.09 0.09 0.10 0.10 0.11 0.11 0.12 0.14 0.15 0.15 0.16 0.16 0.16 0.16
0.32 0.33 0.33 0.33 0.33 0.33 0.34 0.34 0.35 0.35 0.35 0.36 0.35 0.34 0.33 0.32 0.31 0.32 0.32 0.32 0.32 0.33 0.33 0.33 0.34 0.34 0.33 0.32 0.30 0.29 0.29 0.30 0.31 0.30 0.30 0.30 0.30 0.30 0.29 0.27 0.26 0.25 0.23 0.21 0.18 0.16 0.14 0.13 0.12 0.11 0.10 0.10 0.09 0.09 0.09 0.09 0.09 0.09 0.09 0.09 0.09 0.09 0.09 0.09 0.09 0.09 0.09 0.09 0.08 0.09 0.09 0.09 0.09 0.10 0.10 0.11 0.12 0.12 0.13 0.14 0.15 0.15 0.16 0.16 0.16
0.30 0.31 0.32 0.32 0.32 0.32 0.32 0.32 0.32 0.33 0.33 0.33 0.33 0.33 0.33 0.32 0.30 0.30 0.32 0.32 0.32 0.32 0.31 0.30 0.29 0.29 0.29 0.28 0.28 0.27 0.28 0.30 0.30 0.30 0.30 0.31 0.31 0.30 0.28 0.27 0.26 0.24 0.22 0.19 0.16 0.14 0.13 0.12 0.11 0.11 0.10 0.09 0.09 0.09 0.09 0.09 0.09 0.09 0.09 0.09 0.09 0.09 0.09 0.09 0.10 0.09 0.09 0.09 0.09 0.09 0.09 0.09 0.09 0.09 0.10 0.11 0.11 0.12 0.13 0.14 0.15 0.16 0.16 0.16 0.16
0.28 0.28 0.29 0.30 0.30 0.30 0.30 0.31 0.31 0.31 0.31 0.32 0.32 0.32 0.32 0.31 0.31 0.31 0.31 0.31 0.31 0.32 0.32 0.32 0.30 0.29 0.27 0.26 0.26 0.26 0.27 0.29 0.29 0.30 0.30 0.31 0.31 0.29 0.28 0.27 0.25 0.23 0.19 0.16 0.15 0.13 0.12 0.11 0.11 0.10 0.10 0.10 0.09 0.09 0.09 0.09 0.09 0.09 0.09 0.09 0.09 0.09 0.09 0.10 0.09 0.09 0.09 0.09 0.09 0.09 0.09 0.09 0.09 0.09 0.10 0.10 0.11 0.12 0.13 0.14 0.15 0.15 0.15 0.16 0.16
0.27 0.28 0.29 0.29 0.29 0.29 0.29 0.29 0.29 0.29 0.29 0.29 0.30 0.30 0.29 0.29 0.30 0.29 0.29 0.29 0.30 0.30 0.30 0.31 0.31 0.30 0.28 0.27 0.27 0.28 0.28 0.29 0.30 0.30 0.30 0.31 0.30 0.29 0.27 0.23 0.21 0.19 0.17 0.15 0.14 0.13 0.12 0.11 0.10 0.10 0.10 0.09 0.09 0.09 0.09 0.09 0.09 0.09 0.09 0.09 0.09 0.09 0.09 0.09 0.09 0.09 0.09 0.09 0.08 0.08 0.09 0.09 0.09 0.09 0.10 0.10 0.11 0.11 0.13 0.14 0.15 0.15 0.16 0.16 0.16
0.26 0.26 0.27 0.27 0.27 0.28 0.28 0.28 0.28 0.28 0.28 0.27 0.27 0.28 0.28 0.28 0.28 0.28 0.29 0.29 0.29 0.29 0.29 0.29 0.29 0.29 0.28 0.28 0.28 0.28 0.29 0.29 0.29 0.29 0.29 0.29 0.28 0.26 0.22 0.20 0.18 0.17 0.15 0.14 0.13 0.12 0.11 0.10 0.10 0.10 0.10 0.09 0.09 0.09 0.09 0.09 0.09 0.09 0.09 0.09 0.09 0.09 0.09 0.09 0.09 0.09 0.09 0.08 0.08 0.08 0.08 0.08 0.09 0.09 0.10 0.10 0.11 0.11 0.12 0.14 0.15 0.15 0.16 0.16 0.16
0.26 0.26 0.26 0.26 0.26 0.27 0.27 0.27 0.27 0.27 0.27 0.27 0.26 0.26 0.26 0.26 0.26 0.27 0.27 0.27 0.28 0.28 0.28 0.29 0.28 0.27 0.27 0.27 0.27 0.27 0.28 0.28 0.28 0.28 0.27 0.27 0.25 0.22 0.20 0.18 0.16 0.15 0.13 0.12 0.12 0.11 0.10 0.10 0.10 0.10 0.10 0.10 0.09 0.09 0.09 0.09 0.09 0.09 0.09 0.09 0.09 0.09 0.09 0.09 0.09 0.09 0.08 0.08 0.08 0.08 0.08 0.08 0.09 0.09 0.09 0.09 0.10 0.11 0.12 0.13 0.14 0.15 0.16 0.16 0.16
0.26 0.26 0.26 0.26 0.26 0.26 0.26 0.26 0.26 0.26 0.26 0.26 0.25 0.24 0.24 0.24 0.25 0.26 0.26 0.26 0.26 0.26 0.26 0.27 0.26 0.25 0.24 0.24 0.27 0.26 0.27 0.27 0.27 0.27 0.26 0.24 0.21 0.19 0.18 0.17 0.15 0.14 0.13 0.12 0.11 0.10 0.10 0.10 0.10 0.10 0.10 0.10 0.09 0.09 0.09 0.09 0.09 0.09 0.09 0.09 0.09 0.09 0.09 0.09 0.08 0.08 0.08 0.08 0.08 0.08 0.08 0.08 0.09 0.09 0.09 0.09 0.10 0.10 0.12 0.13 0.14 0.15 0.15 0.16 0.17
0.25 0.26 0.27 0.27 0.26 0.26 0.26 0.26 0.25 0.26 0.25 0.25 0.24 0.23 0.23 0.23 0.24 0.24 0.25 0.25 0.25 0.26 0.26 0.25 0.25 0.24 0.24 0.25 0.25 0.26 0.25 0.24 0.23 0.22 0.21 0.20 0.19 0.18 0.16 0.15 0.14 0.13 0.12 0.11 0.11 0.10 0.10 0.09 0.10 0.10 0.10 0.10 0.10 0.09 0.09 0.09 0.09 0.09 0.09 0.09 0.09 0.08 0.08 0.08 0.08 0.08 0.08 0.08 0.08 0.08 0.08 0.08 0.09 0.09 0.09 0.09 0.10 0.10 0.11 0.13 0.14 0.15 0.15 0.16 0.16
0.24 0.25 0.26 0.26 0.25 0.25 0.25 0.25 0.25 0.25 0.25 0.24 0.24 0.24 0.23 0.23 0.23 0.24 0.24 0.24 0.24 0.24 0.24 0.24 0.24 0.24 0.25 0.25 0.24 0.24 0.22 0.22 0.21 0.20 0.19 0.18 0.17 0.16 0.15 0.14 0.13 0.12 0.11 0.11 0.10 0.10 0.10 0.10 0.10 0.10 0.10 0.09 0.09 0.09 0.09 0.09 0.09 0.09 0.09 0.09 0.08 0.08 0.08 0.08 0.08 0.08 0.08 0.08 0.08 0.08 0.08 0.08 0.09 0.09 0.09 0.09 0.10 0.10 0.11 0.12 0.13 0.14 0.15 0.16 0.17
0.23 0.23 0.24 0.24 0.24 0.23 0.23 0.23 0.23 0.23 0.24 0.24 0.24 0.24 0.24 0.24 0.23 0.23 0.23 0.23 0.23 0.24 0.23 0.23 0.24 0.24 0.24 0.24 0.24 0.23 0.22 0.21 0.20 0.19 0.18 0.17 0.16 0.15 0.15 0.14 0.13 0.12 0.11 0.10 0.10 0.10 0.10 0.10 0.09 0.09 0.09 0.09 0.09 0.09 0.09 0.09 0.09 0.09 0.09 0.08 0.08 0.08 0.08 0.08 0.08 0.08 0.08 0.08 0.08 0.08 0.08 0.09 0.09 0.09 0.09 0.09 0.10 0.10 0.11 0.12 0.13 0.14 0.16 0.16 0.17
0.22 0.22 0.22 0.22 0.22 0.22 0.22 0.22 0.22 0.22 0.23 0.23 0.24 0.24 0.24 0.24 0.24 0.23 0.23 0.23 0.24 0.24 0.24 0.23 0.23 0.23 0.23 0.24 0.23 0.23 0.21 0.20 0.19 0.18 0.17 0.16 0.16 0.15 0.14 0.13 0.12 0.11 0.11 0.10 0.10 0.10 0.10 0.09 0.09 0.09 0.09 0.09 0.09 0.09 0.09 0.09 0.09 0.08 0.08 0.08 0.08 0.08 0.08 0.08 0.08 0.08 0.08 0.08 0.08 0.08 0.09 0.09 0.09 0.09 0.09 0.09 0.09 0.10 0.11 0.12 0.13 0.14 0.15 0.16 0.17
0.22 0.22 0.22 0.22 0.22 0.22 0.22 0.23 0.23 0.23 0.22 0.23 0.23 0.23 0.23 0.23 0.23 0.23 0.22 0.23 0.23 0.23 0.22 0.22 0.22 0.22 0.23 0.24 0.23 0.22 0.20 0.19 0.18 0.17 0.16 0.16 0.15 0.14 0.13 0.12 0.12 0.11 0.10 0.10 0.10 0.10 0.10 0.09 0.09 0.09 0.09 0.09 0.09 0.08 0.08 0.08 0.08 0.08 0.08 0.08 0.08 0.08 0.08 0.08 0.08 0.08 0.08 0.08 0.08 0.09 0.09 0.09 0.09 0.09 0.09 0.09 0.09 0.10 0.11 0.11 0.12 0.14 0.15 0.16 0.17
0.21 0.21 0.22 0.22 0.22 0.22 0.22 0.23 0.23 0.22 0.22 0.22 0.23 0.22 0.22 0.22 0.22 0.22 0.22 0.21 0.21 0.21 0.21 0.21 0.22 0.22 0.22 0.23 0.22 0.20 0.18 0.18 0.17 0.16 0.16 0.15 0.14 0.13 0.12 0.12 0.11 0.10 0.10 0.10 0.10 0.09 0.09 0.09 0.09 0.09 0.09 0.09 0.09 0.09 0.09 0.09 0.09 0.08 0.08 0.08 0.08 0.08 0.08 0.08 0.08 0.08 0.08 0.08 0.09 0.09 0.09 0.09 0.10 0.09 0.09 0.09 0.09 0.10 0.10 0.11 0.12 0.13 0.15 0.16 0.17
0.21 0.21 0.21 0.21 0.21 0.21 0.21 0.22 0.22 0.22 0.22 0.21 0.21 0.21 0.21 0.22 0.22 0.21 0.21 0.21 0.21 0.21 0.21 0.21 0.22 0.21 0.21 0.21 0.20 0.19 0.18 0.17 0.16 0.16 0.15 0.14 0.13 0.13 0.12 0.11 0.10 0.10 0.10 0.09 0.09 0.09 0.09 0.09 0.09 0.08 0.08 0.08 0.08 0.08 0.08 0.09 0.09 0.09 0.09 0.08 0.08 0.08 0.08 0.08 0.09 0.09 0.09 0.09 0.09 0.09 0.09 0.10 0.10 0.09 0.09 0.09 0.09 0.10 0.10 0.10 0.11 0.13 0.14 0.16 0.16
0.20 0.20 0.20 0.20 0.20 0.20 0.20 0.21 0.21 0.21 0.21 0.21 0.20 0.20 0.20 0.20 0.21 0.21 0.21 0.21 0.21 0.21 0.21 0.21 0.21 0.21 0.20 0.20 0.19 0.18 0.17 0.16 0.16 0.15 0.14 0.13 0.13 0.12 0.11 0.10 0.10 0.09 0.09 0.09 0.09 0.09 0.09 0.09 0.08 0.08 0.08 0.08 0.08 0.08 0.08 0.08 0.09 0.09 0.09 0.09 0.09 0.09 0.09 0.09 0.09 0.09 0.09 0.10 0.10 0.10 0.10 0.10 0.10 0.09 0.09 0.09 0.09 0.10 0.10 0.10 0.11 0.12 0.14 0.15 0.16
0.20 0.20 0.20 0.19 0.19 0.20 0.20 0.20 0.20 0.20 0.20 0.19 0.19 0.19 0.19 0.20 0.20 0.20 0.21 0.20 0.20 0.20 0.20 0.20 0.20 0.19 0.19 0.18 0.18 0.17 0.16 0.16 0.15 0.14 0.13 0.13 0.12 0.11 0.10 0.10 0.09 0.09 0.09 0.09 0.09 0.09 0.08 0.08 0.08 0.08 0.08 0.08 0.08 0.08 0.08 0.08 0.09 0.09 0.09 0.09 0.09 0.09 0.09 0.10 0.10 0.10 0.10 0.10 0.10 0.11 0.11 0.10 0.09 0.09 0.09 0.09 0.09 0.09 0.09 0.10 0.11 0.12 0.13 0.15 0.16
0.20 0.19 0.19 0.19 0.19 0.19 0.20 0.20 0.20 0.20 0.19 0.18 0.18 0.19 0.19 0.20 0.20 0.20 0.19 0.19 0.19 0.19 0.19 0.19 0.19 0.18 0.18 0.17 0.17 0.16 0.15 0.15 0.14 0.13 0.12 0.11 0.11 0.10 0.10 0.09 0.09 0.09 0.09 0.08 0.08 0.08 0.08 0.08 0.08 0.08 0.08 0.08 0.08 0.08 0.08 0.08 0.09 0.09 0.09 0.09 0.09 0.09 0.09 0.10 0.10 0.10 0.10 0.11 0.11 0.11 0.11 0.10 0.09 0.09 0.10 0.10 0.09 0.09 0.09 0.09 0.10 0.12 0.13 0.14 0.16
0.19 0.19 0.19 0.19 0.20 0.20 0.20 0.20 0.19 0.19 0.18 0.18 0.19 0.19 0.19 0.19 0.19 0.19 0.18 0.18 0.18 0.18 0.19 0.18 0.18 0.17 0.17 0.16 0.16 0.15 0.15 0.14 0.13 0.12 0.11 0.11 0.10 0.10 0.09 0.09 0.09 0.09 0.08 0.08 0.08 0.08 0.08 0.08 0.08 0.08 0.08 0.08 0.08 0.08 0.08 0.08 0.09 0.09 0.09 0.09 0.09 0.09 0.10 0.10 0.10 0.10 0.11 0.12 0.12 0.12 0.11 0.10 0.09 0.10 0.10 0.10 0.10 0.09 0.09 0.09 0.10 0.11 0.12 0.14 0.15
0.19 0.19 0.19 0.19 0.20 0.20 0.20 0.19 0.19 0.19 0.19 0.19 0.19 0.18 0.18 0.18 0.18 0.18 0.18 0.18 0.18 0.18 0.18 0.17 0.17 0.16 0.16 0.16 0.15 0.14 0.14 0.13 0.12 0.11 0.10 0.10 0.10 0.09 0.09 0.09 0.09 0.08 0.08 0.08 0.08 0.08 0.08 0.08 0.08 0.08 0.08 0.08 0.08 0.08 0.08 0.08 0.09 0.09 0.09 0.09 0.10 0.10 0.10 0.10 0.11 0.11 0.11 0.12 0.12 0.11 0.10 0.09 0.09 0.10 0.10 0.10 0.09 0.09 0.09 0.09 0.10 0.11 0.12 0.13 0.15
0.19 0.19 0.19 0.19 0.19 0.19 0.19 0.19 0.19 0.18 0.18 0.18 0.18 0.18 0.17 0.17 0.17 0.18 0.17 0.18 0.18 0.17 0.17 0.16 0.16 0.16 0.15 0.15 0.14 0.13 0.12 0.12 0.11 0.10 0.10 0.09 0.09 0.09 0.09 0.09 0.08 0.08 0.08 0.08 0.08 0.08 0.08 0.08 0.08 0.08 0.08 0.08 0.08 0.08 0.08 0.09 0.09 0.09 0.10 0.10 0.10 0.10 0.10 0.11 0.11 0.11 0.11 0.12 0.12 0.11 0.09 0.09 0.09 0.09 0.09 0.10 0.09 0.09 0.09 0.09 0.10 0.10 0.11 0.13 0.14
Wind_Speed
39 40 41 41 42 42 42 42 42 43 43 43 43 43 43 42 42 42 42 42 41 40 39 38 37 37 36 36 36 37 37 37 37 37 37 37 37 37 37 37 37 38 38 38 38 39 39 40 40 41 41 41 41 42 43 43 44 44 44 45 46 46 47 48 50 51 51 49 49 51 52 53 53 53 53 54 54 54 55 55 56 56 57 58 58
42 43 43 43 44 44 44 44 44 44 45 45 45 44 44 44 43 43 43 42 42 41 40 38 38 37 37 37 37 37 37 37 37 37 37 37 37 37 38 38 38 38 38 38 38 39 39 40 40 41 41 41 42 43 43 43 44 44 45 46 47 47 48 49 49 51 51 50 50 51 52 53 53 53 53 54 54 55 55 55 56 57 58 59 60
44 45 45 45 45 45 45 45 45 46 46 46 46 45 45 44 44 43 43 43 43 42 40 39 38 38 38 37 37 37 38 38 37 37 37 37 37 38 38 38 38 38 38 38 39 39 39 40 40 41 41 42 42 43 43 44 44 45 46 46 47 48 48 49 49 50 51 51 50 51 52 52 53 53 53 53 54 55 55 55 56 58 59 60 61
45 45 46 46 46 46 46 47 47 47 47 47 47 46 45 45 44 44 43 43 43 42 41 40 39 39 38 38 38 38 38 38 38 37 37 37 38 38 38 38 38 38 38 38 39 39 39 40 40 41 41 42 43 43 44 45 45 46 47 47 47 48 48 48 49 50 51 52 51 51 52 53 53 53 53 54 54 55 55 57 58 59 60 62 63
46 46 46 47 47 46 47 47 48 48 47 47 47 47 46 45 44 44 43 43 43 43 42 41 40 40 40 40 39 39 39 39 38 38 38 38 38 37 37 37 38 38 38 39 39 39 40 41 41 42 42 43 43 44 45 45 46 46 47 47 47 47 48 48 49 50 51 52 52 52 51 52 53 52 53 54 55 55 56 58 59 60 61 62 63
46 46 46 46 47 47 47 48 49 49 48 47 47 47 46 45 45 44 44 44 44 44 43 42 41 41 41 41 40 40 40 40 39 39 38 38 37 37 38 38 38 39 39 40 40 40 41 41 42 42 43 43 44 44 45 45 46 46 46 47 47 48 48 49 50 51 51 52 53 52 51 51 52 52 53 55 57 58 58 59 59 58 60 61 62
44 45 46 46 47 47 48 48 48 49 49 48 47 47 46 46 45 45 44 44 45 44 44 44 43 42 42 42 42 42 41 40 40 39 38 38 38 38 39 39 40 40 40 40 41 41 41 42 42 42 43 43 44 44 45 45 45 46 46 47 47 48 49 50 51 51 52 52 52 52 51 51 52 54 54 55 57 58 59 60 61 60 60 61 63
43 44 45 45 46 47 48 48 48 48 48 48 47 46 46 46 45 45 44 45 45 45 45 44 43 43 42 43 43 42 41 40 40 39 39 39 39 40 40 40 40 40 41 41 41 41 42 42 42 42 43 43 44 44 45 45 45 46 46 47 48 49 49 50 50 51 51 51 51 51 52 52 52 54 55 56 57 58 58 60 63 63 62 62 62
44 44 45 46 46 47 47 47 47 47 47 47 47 46 46 46 45 44 44 44 45 45 45 44 44 43 43 43 43 42 42 41 41 41 41 40 40 40 40 40 40 40 41 41 41 41 42 42 42 42 43 44 44 45 45 46 46 46 47 47 48 48 49 49 49 50 49 50 50 51 52 52 53 54 56 56 57 60 61 61 62 63 63 63 63
44 45 45 46 46 46 46 45 45 45 46 46 46 46 46 45 45 44 44 44 44 45 45 44 44 43 43 43 43 43 42 42 41 41 41 40 40 40 40 40 40 40 40 40 41 41 41 41 42 42 44 44 45 45 46 46 46 47 47 47 47 48 48 49 49 49 49 50 50 51 52 53 54 55 57 57 58 60 61 61 62 63 63 64 64
45 45 46 46 45 45 45 45 45 45 45 45 46 46 45 45 44 44 44 44 44 44 44 44 44 43 43 43 43 43 42 41 41 41 40 40 40 39 39 39 39 40 40 40 40 40 41 41 42 42 43 44 45 45 46 46 46 47 47 47 47 47 48 48 49 49 50 51 51 51 52 54 55 55 57 58 59 60 60 60 62 63 63 63 64
47 46 46 46 46 46 46 45 45 45 45 45 45 45 44 44 44 44 43 44 44 44 44 44 43 43 43 42 42 42 41 41 41 41 40 40 39 39 39 39 39 39 39 40 40 40 41 41 41 42 42 43 43 44 44 45 46 47 47 48 48 48 48 49 49 50 51 51 52 52 53 55 56 56 57 58 60 60 61 62 62 62 63 63 64
49 48 47 47 47 46 46 46 45 45 45 45 44 44 44 43 43 43 43 43 43 44 44 43 43 42 42 41 41 41 41 41 41 40 39 39 38 38 37 37 38 38 38 39 40 40 40 40 41 41 41 42 42 43 43 44 45 46 47 48 48 48 48 49 50 51 51 52 52 53 54 55 57 57 58 59 61 62 62 63 63 64 65 66 66
49 48 48 47 47 46 46 46 45 45 45 44 43 43 43 43 43 43 43 43 43 44 44 43 42 42 41 40 40 40 40 40 39 39 38 38 37 37 36 36 36 37 37 38 38 39 39 39 40 40 41 41 42 42 43 44 45 46 46 47 47 48 48 48 49 50 51 51 52 54 54 55 57 58 58 59 61 63 63 65 65 66 67 68 69
49 48 47 46 46 45 45 45 45 45 44 43 43 42 42 43 43 43 43 44 44 44 44 43 41 40 40 39 39 39 39 39 38 38 37 37 36 36 36 36 36 36 37 37 38 38 38 39 40 40 41 41 42 43 44 45 45 46 46 46 47 47 48 48 49 50 50 51 52 54 54 55 56 58 58 59 61 62 64 65 66 67 69 69 69
46 46 45 45 44 44 44 44 45 44 44 43 43 42 42 43 43 43 43 43 43 43 43 42 40 39 39 38 38 38 38 38 38 37 37 37 36 36 36 36 36 37 37 38 38 38 39 39 40 41 41 41 42 43 44 45 45 46 46 46 47 47 48 49 50 50 51 51 52 54 55 56 57 58 59 60 61 62 64 66 66 66 67 68 67
44 43 43 43 43 43 43 44 44 44 44 43 43 42 42 42 43 43 42 42 43 43 42 40 39 39 39 38 38 38 38 38 38 37 37 37 36 36 36 37 37 37 37 38 39 39 40 40 40 40 41 41 42 43 44 45 45 46 47 47 48 48 49 49 50 50 51 52 54 54 55 56 57 58 59 60 62 63 64 66 66 65 66 66 65
42 42 42 43 43 43 43 44 44 44 44 44 43 43 42 42 42 42 42 42 42 42 41 39 40 40 40 39 39 39 38 38 38 37 37 37 37 37 37 37 37 37 38 38 39 39 40 40 40 41 41 41 42 43 44 45 45 46 47 48 48 48 48 48 49 49 51 52 53 53 54 55 57 58 60 61 63 63 63 64 65 64 64 64 64
43 43 43 44 44 44 43 44 44 44 44 44 43 43 42 42 42 42 42 42 42 41 40 40 40 40 40 40 39 39 38 38 37 37 37 37 37 37 37 37 37 38 38 38 39 39 39 40 40 40 40 41 42 43 44 45 45 46 46 47 48 48 48 48 48 49 49 50 51 52 53 55 57 58 59 60 61 61 61 61 61 61 62 62 62
42 43 43 43 44 44 43 43 44 44 45 44 44 43 43 43 42 42 42 41 41 40 40 40 41 41 41 40 39 39 38 38 37 37 37 37 37 37 38 38 38 38 38 38 39 39 39 39 39 40 40 41 43 44 44 45 45 45 46 46 47 47 47 47 48 48 49 50 51 53 54 55 56 57 58 59 59 59 59 58 58 59 60 61 61
41 42 42 42 43 43 43 43 44 45 45 45 44 44 43 43 43 42 42 41 40 40 40 40 40 41 40 40 39 39 39 38 37 37 37 37 37 37 38 39 39 39 39 39 39 39 39 38 39 40 41 42 43 44 44 44 45 45 45 46 47 47 47 47 48 48 49 51 52 53 54 54 55 56 57 58 58 58 58 57 57 57 58 60 60
40 40 41 41 42 43 43 44 44 45 45 45 44 44 43 43 42 41 41 40 40 40 40 40 40 40 40 40 40 39 39 39 38 38 38 38 37 38 38 39 39 39 39 39 39 39 39 39 40 41 42 42 43 43 43 44 44 44 45 45 46 47 47 47 48 49 50 51 52 53 53 54 55 56 57 58 58 57 57 56 56 57 58 59 59
40 40 40 40 40 41 42 43 44 44 45 45 45 44 43 42 42 41 40 40 40 40 40 40 40 41 41 41 41 40 40 40 39 39 39 39 39 39 39 39 39 39 39 39 39 39 39 40 41 42 42 43 43 42 42 43 43 43 44 45 46 46 46 47 48 49 50 51 52 52 53 54 55 56 57 57 57 56 56 56 57 58 59 59 58
40 40 40 40 39 39 40 41 42 43 44 44 44 44 44 43 42 41 41 40 40 40 41 41 41 42 42 42 42 41 41 40 40 40 40 40 40 40 39 40 40 40 40 40 39 39 40 40 41 41 42 42 42 41 41 42 42 43 44 45 45 45 46 46 47 49 50 51 51 52 53 54 55 56 56 57 57 57 57 57 58 59 59 59 57
40 40 40 40 40 39 40 41 41 42 42 43 43 43 44 43 43 42 42 41 41 41 41 41 42 42 43 43 43 42 41 40 40 41 41 41 41 41 40 40 40 40 40 40 40 40 40 40 41 41 41 41 41 41 41 41 42 43 44 44 44 45 45 46 47 48 49 50 51 52 53 54 55 56 56 57 57 57 57 57 58 58 58 58 56
41 41 41 41 40 40 41 41 41 42 42 42 42 43 43 43 43 43 43 42 42 41 41 42 42 42 43 43 43 43 42 41 41 41 42 42 42 41 41 40 40 40 40 40 40 40 40 40 40 40 40 40 40 40 40 41 42 43 43 44 44 44 45 46 47 48 49 50 51 52 53 54 55 56 56 56 56 56 56 57 58 58 57 56 54
43 43 43 42 42 43 43 43 43 43 43 43 43 43 43 43 43 42 43 42 42 42 42 42 42 42 42 42 42 42 42 42 42 42 42 42 42 42 42 42 41 41 41 40 40 40 40 39 39 40 40 40 40 40 40 41 42 42 43 43 43 43 44 45 46 48 49 50 51 52 53 54 55 55 55 55 56 56 56 57 58 57 56 54 53
46 45 45 45 45 45 46 46 45 44 44 45 45 45 45 45 45 44 44 43 43 42 42 42 42 42 42 42 42 42 43 43 43 43 42 43 43 43 43 43 42 42 41 40 40 40 39 39 39 39 39 39 39 39 39 40 41 42 43 43 42 43 44 45 46 47 48 50 51 52 53 53 54 54 55 55 55 56 56 57 57 56 55 53 51
48 47 47 47 47 47 47 47 47 47 47 47 48 48 48 48 48 47 47 47 46 45 45 45 44 44 43 43 43 43 44 44 44 43 43 43 43 43 43 42 42 41 40 40 40 40 39 39 39 38 38 38 38 39 39 40 41 42 42 42 42 42 43 44 45 46 48 49 50 51 52 53 53 53 54 54 55 55 56 57 56 55 53 51 49
49 49 49 49 49 49 49 49 49 49 49 49 49 49 50 50 50 49 49 50 50 50 49 49 48 46 45 45 46 46 46 45 44 44 44 44 43 42 41 41 40 40 40 39 39 39 38 38 38 38 38 38 38 38 39 40 41 41 41 41 40 41 42 43 44 46 47 48 49 50 51 52 52 53 53 54 55 55 56 56 55 53 52 50 47
51 51 50 50 51 51 51 51 51 51 51 50 50 50 50 50 51 52 51 51 52 52 52 52 51 50 49 48 48 47 46 45 44 44 44 43 43 42 41 41 41 40 40 39 39 38 37 37 37 37 37 37 37 37 38 39 40 40 40 39 39 40 41 42 44 45 46 47 48 49 50 51 52 53 53 54 55 55 55 55 53 52 50 48 45
54 54 53 52 52 52 52 52 52 52 52 52 51 51 50 50 51 52 52 52 52 52 52 52 52 51 51 50 49 48 46 45 44 44 44 44 43 42 42 43 42 41 39 38 37 37 36 36 36 36 36 36 36 37 38 38 39 38 38 38 39 39 41 42 43 45 46 47 47 48 49 50 51 52 53 54 54 55 55 53 52 51 49 46 44
57 57 56 55 55 54 54 54 53 53 53 53 53 53 52 52 52 52 52 52 52 53 53 52 52 51 51 50 50 49 47 45 45 45 45 44 44 43 43 43 41 39 38 38 36 36 35 35 36 36 36 36 36 36 37 37 37 37 37 37 38 39 40 42 43 44 45 46 47 48 49 50 51 52 53 53 54 54 54 53 51 50 47 45 44
59 59 58 57 56 56 56 56 55 54 54 54 54 54 54 53 52 51 51 51 51 52 53 53 52 52 50 49 48 47 46 45 45 45 44 44 43 43 42 41 39 38 37 37 36 35 35 35 36 35 35 35 35 35 36 36 35 35 36 37 38 39 40 41 42 43 44 45 46 47 49 50 51 52 53 53 53 53 53 52 50 48 45 44 44
58 59 59 58 57 57 57 57 56 55 55 55 55 55 54 53 52 51 51 50 50 50 50 51 52 52 52 50 48 46 45 45 45 45 45 45 44 43 41 39 38 37 37 36 35 35 35 35 35 35 34 34 34 34 34 34 34 34 35 36 37 38 39 41 42 43 44 45 46 47 48 50 51 52 52 53 53 52 52 51 49 46 45 44 44
57 57 57 57 57 56 56 56 56 56 55 54 54 54 53 53 52 51 50 50 49 49 48 48 49 50 50 49 47 46 45 45 45 45 45 45 43 41 40 38 37 36 36 35 34 34 34 34 34 33 33 33 33 32 32 32 33 34 35 35 36 38 39 40 42 43 44 45 46 47 48 49 51 51 52 52 52 52 51 50 48 46 45 45 44
57 57 56 56 56 56 55 55 55 55 55 54 53 53 53 53 52 51 50 49 48 48 47 47 47 47 48 48 47 46 45 45 44 44 43 42 41 39 38 37 36 35 34 33 33 33 32 32 32 32 31 31 30 30 30 31 32 33 34 35 36 37 39 40 42 43 44 45 46 47 48 49 50 51 51 51 51 51 50 49 47 45 45 46 45
59 58 57 56 55 55 55 54 54 55 55 55 54 54 53 53 52 52 51 50 49 47 47 46 45 45 46 47 47 45 44 43 41 41 40 39 38 37 36 35 34 33 32 32 32 31 31 30 30 29 29 28 28 28 29 30 31 32 33 34 36 37 39 41 42 43 44 45 46 47 48 49 50 50 50 50 51 50 49 48 46 45 45 45 44
58 58 58 57 55 54 54 54 54 54 55 55 55 54 53 52 51 51 50 49 48 47 46 44 44 45 45 45 44 44 43 41 39 39 38 37 36 35 34 33 32 31 31 31 30 29 28 28 28 27 27 27 27 28 29 30 30 32 33 34 36 37 39 40 42 43 44 45 46 47 47 48 49 49 49 50 50 50 48 47 46 45 45 45 44
55 56 56 55 55 54 54 54 53 53 52 52 52 51 51 50 49 48 48 47 46 45 44 43 44 44 44 43 43 43 41 39 38 37 36 35 34 33 32 32 31 30 29 28 28 27 26 26 26 25 26 26 27 28 28 29 30 31 33 34 36 37 39 40 42 44 45 45 46 47 47 48 49 48 48 49 49 48 47 46 46 45 45 45 44
52 52 53 53 53 52 52 51 51 51 50 50 50 49 49 48 48 47 46 45 45 44 43 43 43 42 42 42 41 40 38 37 36 36 35 34 32 31 31 30 29 28 27 26 26 25 25 24 25 25 25 26 27 27 28 29 30 31 33 34 36 37 39 41 42 44 45 45 46 46 47 48 48 48 48 48 48 47 46 45 45 45 45 44 44
47 47 48 48 49 48 48 47 47 47 47 48 48 48 47 47 47 46 46 45 44 43 42 41 40 40 39 38 37 36 35 35 34 33 33 32 31 30 29 28 27 26 25 25 24 24 24 24 24 25 25 25 26 27 28 29 30 31 33 35 36 38 39 41 42 44 45 45 46 46 47 48 47 47 47 48 47 45 45 44 45 44 44 44 43
42 42 43 43 43 44 44 44 44 44 44 44 44 44 44 44 43 43 42 42 41 39 38 37 37 37 36 35 34 33 33 32 32 31 31 30 29 28 27 26 25 24 24 24 23 23 23 23 24 24 24 25 26 27 28 29 30 32 33 35 36 38 40 41 43 44 45 45 46 46 47 47 47 46 46 46 45 44 44 44 44 44 43 43 42
38 38 38 38 39 39 40 40 40 40 40 40 40 40 40 40 39 39 38 37 36 35 34 35 35 34 34 33 33 32 32 31 31 30 29 29 28 26 25 24 24 23 23 23 23 23 23 23 23 24 24 25 26 27 28 29 30 32 33 35 37 38 40 41 43 44 45 45 46 47 47 47 46 46 45 44 44 43 43 43 44 44 43 42 41
33 33 34 34 34 35 35 36 36 36 36 35 35 36 36 36 35 35 34 33 33 33 33 33 32 31 31 31 31 31 31 31 30 29 28 27 26 25 24 24 23 23 23 22 22 22 22 22 23 23 24 25 26 27 28 30 31 32 34 35 37 39 40 41 43 44 45 45 46 46 47 46 46 45 44 43 42 42 42 43 44 43 43 42 40
28 29 29 29 29 30 31 31 32 32 32 32 32 32 32 32 32 32 31 31 31 31 31 31 30 30 30 30 30 30 30 30 29 28 27 26 25 24 24 23 23 22 22 22 22 22 22 22 23 23 24 25 26 27 29 30 31 33 34 35 37 39 40 41 43 44 44 45 45 46 46 46 45 43 42 41 41 41 41 43 43 42 42 41 40
24 24 25 25 25 26 27 28 28 29 29 29 30 30 30 29 29 29 29 29 29 30 29 29 30 30 30 29 29 29 28 28 28 27 26 25 24 23 23 23 22 22 22 21 21 21 21 22 23 23 24 25 26 28 29 30 32 33 35 36 37 39 40 42 43 43 44 44 45 45 45 45 44 42 41 40 40 40 41 42 42 42 41 41 39
21 21 22 22 23 23 24 25 26 26 27 27 28 28 27 27 27 27 27 27 28 28 28 29 29 29 29 29 29 28 27 27 26 26 25 24 23 23 23 22 21 21 21 21 21 21 21 22 23 24 25 26 27 28 29 31 32 33 35 36 38 39 40 42 43 43 43 44 44 44 45 44 42 40 39 39 39 39 40 41 41 41 41 40 39
19 19 20 20 21 22 22 23 23 24 24 25 25 25 25 25 25 26 26 26 27 27 27 27 28 29 29 29 28 27 26 26 25 24 24 23 23 22 22 21 21 20 20 20 21 21 22 23 24 24 25 27 28 29 30 31 33 34 35 37 38 39 41 42 43 43 43 43 43 44 44 43 40 39 38 37 38 39 39 40 40 40 40 39 38
17 17 18 18 18 18 19 19 20 21 21 22 22 23 24 24 25 25 26 26 25 25 26 26 27 27 28 28 27 26 25 25 24 23 23 22 22 21 21 20 20 20 20 20 21 21 22 23 24 25 26 27 28 30 31 32 33 35 36 37 39 40 41 42 43 43 43 43 43 43 43 41 39 38 37 36 37 38 38 39 39 39 39 38 37
13 14 14 14 15 15 16 17 17 18 20 21 22 22 23 23 24 25 25 24 24 24 25 26 26 26 26 26 26 25 24 24 23 22 22 21 21 21 20 20 20 20 20 20 21 22 23 24 25 26 27 28 29 30 31 33 34 35 37 38 39 40 41 42 43 43 43 43 42 42 41 40 38 37 35 35 36 37 38 38 38 38 38 37 36
Wind_Direction
262 262 261 260 260 260 259 259 259 259 260 260 262 263 264 264 265 265 266 265 265 264 264 263 262 261 261 260 259 260 261 263 265 267 268 269 270 272 273 274 275 276 277 277 278 279 279 279 280 280 280 280 281 281 283 284 285 285 285 285 286 286 286 286 286 286 286 287 287 288 289 289 289 290 290 290 290 290 290 289 290 290 290 290 290
264 263 262 261 260 260 260 260 260 260 260 260 261 263 264 265 265 265 265 264 264 263 263 263 262 261 261 260 260 260 261 263 265 267 268 269 270 272 273 274 275 276 277 278 279 279 279 279 279 280 280 281 281 282 283 285 285 285 286 286 286 287 287 287 288 288 287 288 288 289 289 290 290 290 291 291 291 291 290 290 291 291 292 292 291
265 264 263 261 260 260 260 260 260 260 260 260 261 262 263 264 264 264 264 263 263 262 262 262 261 261 261 261 260 261 261 263 264 266 268 269 270 272 273 274 275 276 277 278 279 279 279 279 280 280 281 282 282 283 284 285 285 286 287 287 287 287 287 287 288 289 289 288 289 289 290 290 291 291 292 292 292 292 291 292 293 293 293 293 293
265 264 263 261 261 260 260 260 260 259 260 260 260 260 262 263 263 263 263 263 262 261 261 261 260 260 261 261 261 261 261 262 264 266 268 270 271 272 273 274 275 276 277 278 279 279 280 280 281 281 282 283 283 284 284 285 286 287 287 287 288 288 288 288 288 289 289 289 289 290 290 291 291 292 293 293 292 293 293 293 294 294 294 294 294
264 264 263 261 260 260 260 260 259 259 260 260 259 259 261 262 262 262 262 261 259 259 260 259 260 260 261 261 261 261 261 262 263 265 268 270 271 272 273 274 275 277 278 279 279 280 280 281 281 283 283 284 284 285 285 286 286 287 287 288 288 288 288 288 288 288 288 289 290 290 291 291 292 293 294 294 293 294 294 295 295 295 295 295 295
264 263 262 261 259 259 259 259 258 258 258 258 258 258 259 260 260 261 260 259 258 258 258 259 260 261 261 261 261 261 261 262 263 265 267 269 270 272 273 274 276 277 278 279 280 280 281 281 282 283 284 284 285 285 286 286 287 288 288 289 289 289 288 288 288 288 288 289 290 291 292 292 293 294 295 295 294 295 295 295 296 295 295 296 296
264 263 262 261 260 260 260 259 259 258 257 257 257 257 258 258 259 260 260 258 257 256 256 257 259 260 260 260 260 260 261 261 262 264 266 268 270 271 273 274 275 277 277 279 279 280 281 282 282 283 283 283 284 285 286 287 288 288 289 290 289 289 289 289 288 288 288 289 290 291 292 293 294 295 294 295 294 295 296 296 296 296 296 296 297
265 263 262 261 261 260 260 260 260 259 258 257 256 256 257 258 259 260 259 258 257 256 256 256 258 259 259 259 260 260 260 260 261 263 266 268 270 271 272 273 275 276 278 279 280 280 281 281 282 282 282 283 284 285 287 288 289 289 290 290 290 290 290 289 289 289 289 290 291 291 293 293 294 294 294 295 295 295 296 296 296 297 297 297 298
264 262 261 260 260 260 260 260 259 258 257 256 255 255 256 257 259 259 258 257 257 257 256 256 257 258 258 259 259 259 259 260 262 264 266 268 269 271 272 273 275 276 278 279 279 279 280 280 281 281 282 283 284 285 286 287 288 290 290 290 290 290 290 290 290 290 290 291 291 291 292 292 293 293 294 294 295 295 296 296 296 297 298 297 298
262 260 259 259 259 259 259 258 258 257 256 255 254 254 255 257 258 259 258 257 257 256 256 256 256 257 258 258 258 258 259 260 262 263 265 267 269 270 272 273 275 276 277 277 278 278 278 279 280 281 281 283 284 285 286 287 288 289 290 290 291 290 291 290 290 290 290 290 291 291 291 291 292 293 294 294 295 296 297 297 297 298 298 298 298
261 259 258 259 258 258 257 257 257 257 256 255 254 254 255 256 257 258 258 257 257 257 256 256 257 257 257 257 257 258 259 259 259 261 263 266 268 270 272 273 274 275 276 277 278 278 279 280 281 282 283 284 285 286 286 287 289 289 290 290 290 290 290 290 290 290 290 290 290 291 291 292 293 294 294 295 296 297 297 297 298 298 299 299 299
261 259 259 259 258 257 257 256 256 256 256 256 255 254 255 255 256 256 257 257 256 256 256 256 256 257 257 257 256 257 258 257 258 260 262 264 267 270 271 272 274 276 277 278 279 279 280 281 283 285 286 286 287 287 288 289 289 290 290 290 290 289 289 289 290 291 291 291 292 292 292 293 294 295 296 296 297 297 297 297 298 298 298 299 299
261 260 260 260 258 257 256 256 256 256 256 256 255 254 254 254 255 255 255 255 255 255 255 255 256 256 256 256 255 256 257 257 258 260 262 263 265 268 270 272 274 276 277 279 280 280 281 282 284 286 287 287 287 288 289 290 290 290 290 290 290 290 291 291 291 291 292 293 293 293 294 295 295 296 297 297 298 298 297 297 298 298 298 298 298
262 260 260 259 258 256 255 255 255 255 255 255 254 253 253 254 254 254 255 255 254 254 254 254 255 255 255 254 255 256 256 256 257 259 261 262 264 266 270 272 275 277 278 279 280 280 281 283 285 287 288 288 288 289 290 290 291 291 291 291 291 291 291 291 291 292 293 293 294 294 296 296 296 297 297 298 298 298 298 298 298 298 298 298 298
260 259 259 258 257 256 255 254 254 253 253 252 251 252 253 253 254 255 255 255 255 255 255 255 255 254 253 253 254 255 255 255 257 259 260 261 263 266 270 272 275 277 278 279 280 281 282 284 286 287 289 289 289 289 290 291 291 292 292 291 291 290 290 291 292 293 294 294 294 295 296 296 296 297 298 298 298 298 298 298 298 299 298 298 298
259 258 258 258 257 256 256 254 252 251 251 251 251 253 254 254 255 256 256 256 256 256 255 255 254 253 252 252 253 254 254 255 257 259 260 261 263 267 270 272 274 276 277 278 280 282 284 285 287 288 289 290 290 290 290 291 292 292 292 291 291 291 291 292 292 293 294 294 295 296 296 297 297 298 299 299 299 299 300 299 299 299 299 299 299
259 258 257 257 256 256 255 253 252 251 250 251 253 254 254 254 255 255 255 255 256 255 255 254 253 251 250 251 252 253 254 256 257 259 259 261 264 267 270 272 274 275 277 279 280 282 284 285 286 288 290 291 291 291 291 292 291 291 291 291 292 292 293 293 293 294 295 295 296 297 297 298 299 299 300 300 300 300 300 300 300 300 300 300 300
260 258 257 257 256 256 254 252 251 251 251 252 253 254 254 255 255 255 255 255 255 255 253 252 251 250 249 250 251 253 255 256 257 258 259 261 264 267 270 272 274 275 277 279 281 283 284 284 285 288 290 291 291 292 292 292 292 291 292 292 293 293 293 294 295 296 297 297 297 298 299 299 300 301 301 301 301 301 300 300 300 300 300 299 300
260 260 259 258 257 256 254 252 251 251 252 253 253 254 254 255 255 255 256 256 255 254 252 251 250 249 250 251 252 254 255 257 258 259 260 261 264 267 270 271 273 275 277 279 282 283 284 284 285 287 289 291 292 293 293 293 292 292 292 293 293 293 294 296 297 298 299 299 299 300 300 301 301 302 302 302 302 302 301 301 301 301 299 299 300
261 261 261 260 258 256 254 252 251 252 252 253 254 254 255 256 256 256 256 256 254 253 252 251 250 250 251 252 253 254 255 258 259 259 259 261 264 267 269 270 271 274 277 279 282 283 284 285 286 288 290 292 293 294 294 293 293 293 293 293 293 294 296 297 298 299 300 300 300 301 302 302 303 303 304 304 304 303 302 302 302 301 300 300 300
262 262 261 260 258 256 253 252 251 252 252 253 254 254 255 256 256 255 255 254 253 252 252 252 251 251 252 252 253 254 256 258 260 260 260 262 265 267 268 270 271 274 276 279 281 282 284 286 287 288 290 292 293 294 294 294 294 293 293 293 294 296 297 298 299 300 301 301 302 302 303 303 304 305 305 305 305 305 304 304 303 302 301 301 301
261 261 261 260 258 256 254 253 253 253 252 253 253 254 255 255 255 254 254 253 253 252 252 251 250 251 251 252 253 255 257 259 260 260 260 262 265 268 269 270 272 274 276 278 280 282 283 285 287 288 289 291 293 294 295 296 295 293 293 294 295 296 298 299 300 301 302 302 302 303 303 304 305 306 306 306 306 306 306 305 304 303 302 301 300
260 260 260 259 258 256 255 255 254 253 253 253 253 253 254 254 253 253 253 253 253 252 252 251 251 251 252 252 254 256 258 259 259 260 260 262 265 267 268 269 271 274 276 277 279 281 283 285 286 287 288 290 292 295 296 296 295 294 294 295 296 298 299 300 301 302 302 302 303 303 304 305 306 307 307 308 308 307 307 306 306 304 304 302 300
261 261 259 258 257 257 256 256 255 255 254 253 253 253 253 252 252 252 253 253 253 253 252 252 252 252 252 253 254 256 258 259 259 259 260 262 264 266 268 269 271 273 275 276 278 281 283 284 285 286 288 289 292 295 296 296 296 296 296 297 298 299 300 301 302 302 302 303 304 304 305 306 307 308 308 308 309 309 308 308 307 306 305 304 301
261 260 259 258 257 257 256 256 255 254 254 253 254 254 252 251 251 252 252 252 252 253 253 253 252 252 252 253 254 256 257 259 260 260 261 262 264 266 268 270 271 272 274 275 278 281 283 283 285 288 289 291 293 295 295 295 296 297 297 298 299 300 301 301 302 302 303 303 304 305 306 307 308 308 309 309 310 310 310 309 308 308 306 305 302
260 259 258 258 258 257 256 255 253 253 252 253 254 253 252 251 251 252 251 251 251 252 252 253 253 253 253 254 254 255 256 258 260 261 262 263 264 266 268 270 271 272 273 275 277 280 282 283 286 288 291 292 294 294 294 295 296 298 300 300 300 300 301 302 302 303 303 304 305 306 307 308 309 309 310 310 311 311 311 310 309 309 308 306 303
259 259 258 258 257 256 255 254 253 254 253 253 253 253 252 251 251 251 251 251 251 252 252 252 252 252 253 254 254 256 256 257 259 261 262 263 264 266 268 270 271 272 273 275 277 279 281 284 286 289 291 293 294 293 293 295 297 299 301 302 301 301 301 302 303 304 304 305 306 307 308 309 310 310 311 311 312 312 312 311 310 310 308 306 304
258 257 257 258 258 257 255 254 254 254 254 254 253 253 252 251 251 251 251 250 250 251 251 251 251 252 253 254 255 256 256 257 258 260 261 263 264 266 268 269 270 271 273 274 276 278 280 283 286 289 290 292 292 292 292 295 297 300 302 302 301 301 302 303 304 305 306 307 308 309 310 310 311 312 312 312 312 312 312 312 311 310 308 307 304
258 257 256 257 257 257 256 255 255 254 255 255 254 253 253 252 252 253 253 252 252 252 252 252 252 253 253 254 254 255 257 258 258 259 260 261 263 265 266 267 268 270 271 272 275 277 279 282 285 287 289 290 290 290 292 295 298 300 302 302 301 301 302 304 305 307 308 309 309 310 311 312 312 313 313 313 313 313 313 312 312 310 309 307 304
259 258 257 257 257 256 256 256 255 255 255 256 255 254 253 253 254 255 255 254 254 254 254 255 254 254 254 255 256 257 257 257 256 257 259 260 261 263 265 265 266 267 268 270 273 276 278 281 283 285 286 287 288 289 292 296 299 301 301 301 301 302 304 305 307 308 309 310 311 312 312 313 314 314 314 314 314 314 314 313 312 310 309 307 304
259 258 258 258 258 257 256 256 256 256 256 256 256 256 255 255 256 256 256 256 255 255 255 256 255 254 255 256 257 258 257 255 254 255 257 258 259 261 263 263 264 265 266 269 272 275 277 280 282 282 283 284 286 289 292 296 299 300 300 300 301 303 305 307 308 310 311 311 312 313 314 314 315 315 315 315 314 314 314 314 312 311 310 308 304
258 258 258 258 258 258 257 257 256 256 256 256 256 257 257 257 257 257 256 256 255 255 256 255 255 255 255 256 256 257 257 254 254 254 255 256 258 260 261 262 263 263 265 268 271 273 276 278 279 279 280 282 285 289 293 296 298 298 299 300 302 304 306 308 310 311 312 313 314 315 315 316 316 316 316 315 315 315 315 314 313 312 311 308 305
258 257 257 257 256 256 256 256 256 256 256 256 256 256 255 256 256 256 256 255 255 255 255 255 255 255 255 255 255 255 254 253 253 254 254 256 258 259 261 261 261 262 264 267 269 271 273 275 276 277 278 281 285 289 293 295 296 297 298 300 302 305 307 309 311 312 313 314 315 316 317 317 317 317 316 316 316 316 315 315 314 313 312 309 307
258 258 257 256 256 256 256 255 255 255 255 255 255 255 255 255 255 255 255 255 254 254 254 254 254 254 254 254 254 253 252 252 252 253 254 255 256 258 259 259 260 262 264 265 267 269 271 272 273 275 277 281 286 289 292 294 295 296 298 300 303 306 309 311 312 313 314 315 316 317 318 318 318 318 318 317 317 316 316 316 315 314 312 310 308
260 259 258 257 256 256 256 255 255 255 255 254 255 255 255 255 255 255 254 254 253 253 252 252 253 254 254 254 253 252 251 251 251 252 253 254 255 256 257 258 260 261 262 264 266 267 268 269 271 273 277 282 286 289 291 292 294 296 299 302 305 307 310 311 312 313 315 316 317 318 319 319 319 319 318 318 318 317 317 317 316 314 312 311 309
261 260 259 258 257 257 256 256 255 255 255 255 255 254 254 254 254 254 254 253 253 252 251 252 253 254 254 253 251 250 250 251 251 252 253 253 253 254 255 256 257 258 259 262 263 265 266 267 270 274 278 282 285 288 290 292 295 298 300 303 306 308 310 312 313 314 316 317 318 319 319 320 320 320 319 318 318 318 317 317 316 314 313 312 310
260 259 258 257 257 257 256 255 255 255 255 255 254 254 253 254 254 253 253 252 251 250 250 250 251 252 253 253 252 251 251 251 250 251 251 251 251 252 253 253 254 255 257 259 260 262 264 267 270 274 278 281 284 287 289 293 296 299 301 304 306 308 310 312 313 315 316 317 318 319 320 320 320 320 320 319 319 319 318 317 316 315 314 313 311
259 259 258 257 256 256 256 255 254 254 254 254 254 253 252 252 252 252 251 251 250 250 250 250 249 250 252 253 252 251 250 249 249 249 250 250 249 249 249 250 252 253 254 256 258 261 263 266 269 273 277 280 283 287 291 294 297 300 303 305 307 309 310 312 314 315 316 317 318 320 320 321 321 321 320 320 320 320 319 318 317 316 315 314 313
259 259 258 257 256 256 256 255 254 253 253 253 253 252 251 251 251 250 250 250 250 250 250 249 249 249 250 251 251 250 248 247 247 247 248 246 245 245 246 248 249 251 252 254 257 259 262 265 268 272 275 279 284 288 292 295 298 301 304 306 308 310 311 312 314 315 316 318 319 320 321 321 321 321 321 321 321 321 320 319 318 317 316 315 314
259 259 258 257 256 256 256 256 255 253 252 251 251 250 250 250 249 249 248 248 248 248 248 249 249 249 249 249 248 246 245 244 243 243 242 240 239 241 243 245 247 248 250 252 255 258 260 263 267 271 275 280 285 289 293 296 299 302 305 307 309 310 311 312 314 315 317 318 320 320 321 321 321 321 321 321 322 321 320 319 319 318 317 316 315
259 258 257 257 256 255 255 255 253 252 251 250 249 249 249 249 249 248 248 247 247 247 248 249 248 247 246 245 243 241 240 239 238 237 236 234 235 238 240 242 244 245 247 250 253 255 259 263 267 272 277 282 286 290 293 297 300 303 306 308 309 311 312 313 314 315 317 319 320 320 321 321 321 321 321 322 322 322 321 320 320 319 318 318 317
258 257 256 255 254 253 253 252 251 250 249 249 248 248 248 248 248 248 247 246 246 246 246 247 245 243 240 238 235 233 234 234 232 231 230 230 232 235 237 239 241 243 245 248 251 255 260 265 269 274 278 283 287 291 294 298 301 304 306 308 310 311 312 313 315 316 318 319 320 321 321 321 321 321 321 322 322 322 322 321 321 320 320 320 319
256 255 254 254 253 252 251 250 249 248 247 247 247 247 247 246 246 245 243 243 243 242 241 241 238 235 232 230 227 227 229 228 226 225 226 227 229 232 233 235 238 241 244 248 253 257 262 267 271 276 280 284 288 292 296 299 302 304 307 309 310 311 313 314 315 317 319 320 320 320 320 321 321 321 321 322 322 322 322 322 322 322 322 322 321
255 254 253 253 252 250 249 248 247 246 246 245 245 244 243 242 241 240 239 238 237 235 234 233 230 227 225 224 223 224 225 223 222 221 223 224 226 228 230 233 237 241 246 250 255 260 264 268 272 277 281 285 290 293 296 299 302 304 307 309 310 312 313 315 316 318 319 320 320 320 320 321 321 321 321 322 322 322 322 323 323 323 323 323 323
255 254 253 251 250 249 247 246 245 244 244 243 242 241 239 238 236 235 233 231 229 228 227 225 223 220 218 218 219 221 221 219 218 219 221 222 224 227 230 234 239 243 248 253 257 261 265 269 274 279 283 287 291 294 297 299 302 304 307 309 311 313 314 315 317 319 320 320 320 320 320 321 321 321 321 322 322 322 323 323 324 324 324 324 324
255 253 251 250 248 247 245 244 243 242 241 240 238 236 234 232 230 228 226 225 223 221 219 216 214 213 213 215 217 218 217 215 215 217 219 221 223 227 231 236 241 245 250 253 257 262 266 271 276 280 285 289 292 295 298 300 302 304 307 309 311 313 315 316 318 319 320 320 320 320 320 321 321 321 321 321 322 322 323 324 325 325 325 325 324
253 251 249 248 246 244 243 241 240 239 237 235 232 229 227 225 224 222 220 218 215 212 209 208 209 211 213 214 214 213 211 211 212 215 217 220 224 228 233 237 242 246 250 254 258 263 268 274 278 282 287 290 294 297 299 301 303 305 307 309 311 313 315 317 318 319 320 321 320 320 321 321 321 320 320 321 322 322 323 324 325 326 326 326 325
250 248 246 243 241 240 239 237 235 233 230 228 225 223 220 218 216 214 212 208 206 204 204 205 207 210 211 210 208 207 207 209 212 214 217 221 225 230 234 238 242 246 250 255 261 266 271 276 280 284 288 292 295 298 300 301 303 306 308 309 311 313 315 316 317 319 320 321 321 321 321 322 321 320 320 321 321 322 323 324 326 327 327 327 327
246 244 242 240 238 236 234 231 227 225 222 219 216 214 210 208 206 204 201 200 199 200 201 203 205 206 205 204 204 205 206 209 211 215 218 223 227 231 235 238 243 247 253 258 264 269 274 278 282 286 289 293 296 298 300 302 304 306 308 310 311 313 315 316 317 318 319 320 321 321 321 321 320 319 319 320 321 322 323 324 326 327 328 328 328
244 241 238 235 231 228 224 220 217 214 211 207 204 201 199 197 197 195 193 194 195 196 198 200 201 200 200 200 202 204 207 209 213 216 220 223 227 231 235 240 245 250 256 261 266 272 276 280 284 288 291 293 296 298 300 303 304 306 307 309 311 313 315 316 317 318 319 320 320 321 321 321 320 319 319 319 321 322 323 325 326 328 329 329 329
235 230 226 221 218 214 211 207 203 199 195 192 190 189 188 188 188 188 188 189 192 193 195 196 196 196 198 200 203 205 208 211 214 217 220 225 229 233 238 244 249 254 259 264 269 275 279 282 286 289 292 294 297 299 301 303 304 305 307 309 311 313 315 316 316 318 319 320 320 320 321 321 320 319 318 319 321 322 323 325 326 328 329 330 331